TimeEDT,TemperatureF,Dew PointF,Humidity,Sea Level PressureIn,VisibilityMPH,Wind Direction,Wind SpeedMPH,Gust SpeedMPH,PrecipitationIn,Events,Conditions,WindDirDegrees,DateUTC
12:54 AM,34.0,19.0,54,29.97,10.0,West,6.9,-,N/A,,Clear,280,2013-03-23 04:54:00
2:54 AM,33.1,17.1,52,29.96,10.0,WNW,6.9,-,N/A,,Partly Cloudy,290,2013-03-23 06:54:00
3:54 AM,33.1,17.1,52,29.95,10.0,WNW,10.4,-,N/A,,Partly Cloudy,290,2013-03-23 07:54:00
4:54 AM,33.1,18.0,54,29.95,10.0,WNW,10.4,-,N/A,,Partly Cloudy,290,2013-03-23 08:54:00
5:54 AM,33.1,18.0,54,29.96,10.0,NW,10.4,-,N/A,,Partly Cloudy,310,2013-03-23 09:54:00
6:54 AM,33.1,18.0,54,29.97,10.0,NW,9.2,-,N/A,,Partly Cloudy,320,2013-03-23 10:54:00
7:54 AM,34.0,18.0,52,29.98,10.0,WNW,6.9,-,N/A,,Partly Cloudy,300,2013-03-23 11:54:00
8:54 AM,36.0,18.0,48,29.98,10.0,NW,10.4,-,N/A,,Partly Cloudy,310,2013-03-23 12:54:00
9:54 AM,37.9,18.0,45,29.98,10.0,WNW,13.8,-,N/A,,Partly Cloudy,290,2013-03-23 13:54:00
10:54 AM,41.0,17.1,38,29.97,10.0,WNW,12.7,-,N/A,,Scattered Clouds,290,2013-03-23 14:54:00
11:54 AM,43.0,16.0,34,29.96,10.0,NW,13.8,23.0,N/A,,Scattered Clouds,310,2013-03-23 15:54:00
12:54 PM,45.0,16.0,31,29.93,10.0,NW,17.3,23.0,N/A,,Scattered Clouds,310,2013-03-23 16:54:00
1:54 PM,46.9,16.0,29,29.91,10.0,NW,13.8,27.6,N/A,,Scattered Clouds,310,2013-03-23 17:54:00
2:54 PM,48.0,17.1,29,29.89,10.0,NW,18.4,24.2,N/A,,Scattered Clouds,310,2013-03-23 18:54:00
3:54 PM,48.9,16.0,27,29.89,10.0,NW,16.1,-,N/A,,Scattered Clouds,310,2013-03-23 19:54:00
4:54 PM,48.0,17.1,29,29.89,10.0,West,17.3,24.2,N/A,,Scattered Clouds,270,2013-03-23 20:54:00
5:54 PM,48.0,18.0,30,29.90,10.0,WNW,13.8,20.7,N/A,,Scattered Clouds,300,2013-03-23 21:54:00
6:54 PM,46.9,17.1,30,29.92,10.0,WNW,13.8,20.7,N/A,,Partly Cloudy,300,2013-03-23 22:54:00
7:54 PM,45.0,17.1,33,29.94,10.0,WNW,13.8,-,N/A,,Partly Cloudy,290,2013-03-23 23:54:00
8:54 PM,44.1,18.0,35,29.94,10.0,WNW,11.5,-,N/A,,Partly Cloudy,290,2013-03-24 00:54:00
9:54 PM,42.1,19.0,40,29.97,10.0,WNW,9.2,-,N/A,,Partly Cloudy,290,2013-03-24 01:54:00
10:54 PM,39.9,19.0,43,29.98,10.0,West,9.2,-,N/A,,Partly Cloudy,280,2013-03-24 02:54:00
11:54 PM,39.0,19.0,45,29.98,10.0,WNW,9.2,-,N/A,,Scattered Clouds,290,2013-03-24 03:54:00